COSMO 3

operational
NORAD ID: 33412 Int'l Des: 2008-054 Owner: ASI Country: I
LEOCIRCULARRETROGRADESSO

About COSMO 3

Description loading...

Live Position

Loading 3D Globe...

Upcoming Passes

Altitude History

Altitude vs Time

uPlot chart will show altitude changes over time

Two-Line Element Set

1 33412U 08054A 26102.53004536 .00003420 00000-0 23491-3 0 9998
2 33412 97.8385 320.0008 0017096 125.6599 234.6222 15.06549372947056
Epoch: Apr 12, 2026 • Age: 3 hours

Current Status

Altitude 551.8 km
Velocity 7.59 km/s
Sub-Earth Point 56.92°N, 135.32°W
Launch Date Oct 25, 2008
Age 17.4 years
Type other

Technical Details

Classification Payload
Mass 1900.00 kg
Dry Mass 1700.00 kg
Total Mass 1900.00 kg
Length 1.40 m
Diameter 1.40 m
Span 12.00 m
Shape Box + 2 Pan
Manufacturer THALA
Bus Type Prima
Phase Status In Orbit
Owner/State ASI/I

Large Constellations

Loading constellations...